TimeEST,TemperatureF,Dew PointF,Humidity,Sea Level PressureIn,VisibilityMPH,Wind Direction,Wind SpeedMPH,Gust SpeedMPH,PrecipitationIn,Events,Conditions,WindDirDegrees,DateUTC
12:53 AM,30.9,19.9,64,29.97,10.0,West,10.4,-,N/A,,Mostly Cloudy,280,2012-12-23 05:53:00
1:53 AM,30.9,19.9,64,29.99,10.0,SW,6.9,-,N/A,,Overcast,230,2012-12-23 06:53:00
2:53 AM,32.0,19.9,61,30.00,10.0,WSW,6.9,-,N/A,,Overcast,250,2012-12-23 07:53:00
3:53 AM,32.0,19.9,61,30.00,10.0,West,10.4,-,N/A,,Overcast,260,2012-12-23 08:53:00
4:53 AM,32.0,19.9,61,30.01,10.0,WSW,11.5,-,N/A,,Overcast,250,2012-12-23 09:53:00
5:53 AM,30.0,19.0,64,30.01,10.0,WSW,9.2,-,N/A,,Scattered Clouds,250,2012-12-23 10:53:00
6:53 AM,28.0,19.0,69,30.02,10.0,WSW,6.9,-,N/A,,Clear,250,2012-12-23 11:53:00
7:53 AM,28.9,19.0,67,30.04,10.0,WSW,10.4,-,N/A,,Clear,250,2012-12-23 12:53:00
8:53 AM,30.9,19.0,61,30.04,10.0,WSW,6.9,-,N/A,,Clear,250,2012-12-23 13:53:00
9:53 AM,34.0,19.0,54,30.03,10.0,WSW,8.1,-,N/A,,Clear,240,2012-12-23 14:53:00
10:53 AM,36.0,18.0,48,30.01,10.0,WSW,12.7,-,N/A,,Clear,250,2012-12-23 15:53:00
11:53 AM,39.0,18.0,43,29.96,10.0,West,9.2,-,N/A,,Clear,260,2012-12-23 16:53:00
1:53 PM,44.1,15.1,31,29.89,10.0,WSW,11.5,-,N/A,,Clear,240,2012-12-23 18:53:00
2:53 PM,45.0,16.0,31,29.88,10.0,West,13.8,-,N/A,,Clear,260,2012-12-23 19:53:00
3:53 PM,43.0,19.0,38,29.88,10.0,WNW,8.1,-,N/A,,Clear,290,2012-12-23 20:53:00
4:53 PM,37.9,19.9,48,29.90,10.0,WNW,5.8,-,N/A,,Clear,290,2012-12-23 21:53:00
5:53 PM,35.1,21.9,59,29.91,10.0,ENE,3.5,-,N/A,,Clear,60,2012-12-23 22:53:00
6:53 PM,35.1,21.9,59,29.93,10.0,Calm,Calm,-,N/A,,Clear,0,2012-12-23 23:53:00
7:53 PM,35.1,21.9,59,29.93,10.0,Calm,Calm,-,N/A,,Clear,0,2012-12-24 00:53:00
8:53 PM,33.1,21.9,64,29.94,10.0,Calm,Calm,-,N/A,,Clear,0,2012-12-24 01:53:00
9:53 PM,30.9,21.9,69,29.96,10.0,WNW,4.6,-,N/A,,Clear,290,2012-12-24 02:53:00
10:53 PM,27.0,19.9,75,29.98,10.0,WNW,5.8,-,N/A,,Clear,300,2012-12-24 03:53:00
11:53 PM,28.9,21.0,72,29.99,10.0,WNW,6.9,-,N/A,,Clear,290,2012-12-24 04:53:00